Location: B�di�
(14.6834°N, 3.1047°W)
Time: 05:40:51
(UTC+00:00)

Cosmos 1437 - Pass Details

Date: 24 January 2020
Orbit: 377 x 382 km, 81.2° (Epoch: 17 February)

Event Time Altitude Azimuth Distance (km) Brightness Sun altitude
Rises 18:50:14 0° 160° (SSE) 2,247 6.4 -10.7°
Reaches altitude 10° 18:52:34 10° 142° (SE) 1,394 5.2 -11.2°
Maximum altitude 18:54:50 19° 94° (E) 973 4.0 -11.8°
Enters shadow 18:55:02 19° 88° (E) 977 4.0 -11.8°
